Date String (YYYY-MM-DD hh:mm:ss) UTC,Instrument flags,absolute air pressure of the measurement (hPa),sample flow rate (lpm),inlet stack bypass flow (lpm),air temperature of the measurement (°C),ambient temperature measured by the external sensor (°C),aerosol sample conditioner tube jacket temperature (°C),OPC LED temperature (°C),internal box temperature (°C),relative humidity of the measurement (%),span deviation,mass concentration of particles derived from Lorenz-Mie calculation of OPC scattering (μg/m³),mass concentration of particles derived from Lorenz-Mie calculation of OPC scattering (μg/m³),mass concentration of particles derived from Lorenz-Mie calculation of OPC scattering (μg/m³)
DateTimeUTC,F1_M11,P_M11,Q1_M11,Q2_M11,T1_M11,T2_M11,T3_M11,T4_M11,T5_M11,U1_M11,ZSPAN_M11,X0_M11,X2_M11,X1_M11
2023-06-08 17:00:00,SystemResetWarning,0830.7,4.99,000.00,029.5,027.8,000.0,038.0,031.0,26.8,0000.0,0008.36,0003.24,0002.67
2023-06-08 17:01:00,SystemResetWarning,0830.6,5.01,000.00,029.5,027.9,000.0,038.0,031.0,26.7,0000.0,0008.31,0003.24,0002.67
2023-06-08 17:02:00,SystemResetWarning,0830.7,5.01,000.00,029.5,028.0,000.0,038.0,031.1,25.7,0000.0,0008.22,0003.21,0002.66
2023-06-08 17:03:00,SystemResetWarning,0830.7,4.99,000.00,029.5,028.1,000.0,038.0,031.1,26.6,0000.0,0008.19,0003.19,0002.64
2023-06-08 17:04:00,SystemResetWarning,0830.7,4.99,000.00,029.6,027.8,000.0,038.0,031.2,26.1,0000.0,0008.21,0003.18,0002.61
2023-06-08 17:05:00,SystemResetWarning,0830.7,5.01,000.00,029.6,026.0,000.0,038.0,031.1,25.5,0000.0,0008.27,0003.19,0002.61
2023-06-08 17:06:00,SystemResetWarning,0830.7,5.01,000.00,029.6,025.5,000.0,037.9,031.1,25.5,0000.0,0008.19,0003.17,0002.61
2023-06-08 17:07:00,SystemResetWarning,0830.7,5.00,000.00,029.5,025.7,000.0,037.9,030.8,26.2,0000.0,0008.07,0003.16,0002.62
2023-06-08 17:08:00,SystemResetWarning,0830.7,5.00,000.00,029.4,026.0,000.0,037.9,030.7,26.1,0000.0,0008.21,0003.14,0002.62
2023-06-08 17:09:00,SystemResetWarning,0830.7,5.00,000.00,029.4,026.3,000.0,037.9,030.7,26.5,0000.0,0007.61,0003.15,0002.62
2023-06-08 17:10:00,SystemResetWarning,0830.7,5.00,000.00,029.4,026.7,000.0,037.9,030.7,26.1,0000.0,0006.66,0003.15,0002.64
2023-06-08 17:11:00,SystemResetWarning,0830.7,5.00,000.00,029.4,027.0,000.0,037.9,030.8,27.0,0000.0,0005.17,0003.15,0002.65
2023-06-08 17:12:00,SystemResetWarning,0830.7,4.99,000.00,029.4,027.2,000.0,037.9,030.8,26.9,0000.0,0005.07,0003.14,0002.64
2023-06-08 17:13:00,SystemResetWarning,0830.7,5.00,000.00,029.4,027.4,000.0,037.9,030.9,27.2,0000.0,0005.10,0003.15,0002.65
2023-06-08 17:14:00,SystemResetWarning,0830.7,5.00,000.00,029.4,027.6,000.0,037.9,031.0,26.6,0000.0,0005.16,0003.15,0002.67
2023-06-08 17:15:00,SystemResetWarning,0830.7,5.01,000.00,029.4,027.8,000.0,038.0,031.0,26.6,0000.0,0005.12,0003.15,0002.70
2023-06-08 17:16:00,SystemResetWarning,0830.7,5.01,000.00,029.5,027.9,000.0,038.0,031.0,26.3,0000.0,0006.08,0003.17,0002.72
2023-06-08 17:17:00,SystemResetWarning,0830.7,4.99,000.00,029.5,028.0,000.0,038.0,031.0,26.5,0000.0,0006.43,0003.18,0002.73
2023-06-08 17:18:00,SystemResetWarning,0830.8,5.00,000.00,029.5,027.6,000.0,038.0,031.1,26.9,0000.0,0006.54,0003.20,0002.72
2023-06-08 17:19:00,SystemResetWarning,0830.7,5.01,000.00,029.5,025.8,000.0,037.9,031.0,25.8,0000.0,0006.56,0003.22,0002.73
2023-06-08 17:20:00,SystemResetWarning,0830.7,5.01,000.00,029.5,025.4,000.0,037.9,031.0,26.0,0000.0,0007.43,0003.23,0002.73
2023-06-08 17:21:00,SystemResetWarning,0830.7,5.01,000.00,029.4,025.7,000.0,037.9,030.8,26.3,0000.0,0007.57,0003.25,0002.73
2023-06-08 17:22:00,SystemResetWarning,0830.7,5.00,000.00,029.4,026.0,000.0,037.9,030.7,26.8,0000.0,0007.59,0003.25,0002.73
2023-06-08 17:23:00,SystemResetWarning,0830.7,5.00,000.00,029.3,026.4,000.0,037.9,030.7,26.4,0000.0,0008.10,0003.26,0002.74
2023-06-08 17:24:00,SystemResetWarning,0830.6,4.99,000.00,029.3,026.7,000.0,037.9,030.7,26.3,0000.0,0008.13,0003.27,0002.74
2023-06-08 17:25:00,SystemResetWarning,0830.7,5.00,000.00,029.3,027.0,000.0,037.9,030.8,26.5,0000.0,0008.09,0003.29,0002.75
2023-06-08 17:26:00,SystemResetWarning,0830.7,5.00,000.00,029.4,027.2,000.0,037.9,030.8,26.5,0000.0,0008.22,0003.28,0002.73
2023-06-08 17:28:00,SystemResetWarning,0830.7,4.99,000.00,029.4,027.7,000.0,037.9,030.9,27.4,0000.0,0008.23,0003.26,0002.72
2023-06-08 17:29:00,SystemResetWarning,0830.7,5.00,000.00,029.4,027.8,000.0,037.9,031.0,27.5,0000.0,0008.20,0003.25,0002.72
2023-06-08 17:30:00,SystemResetWarning,0830.7,5.00,000.00,029.4,027.9,000.0,037.9,031.0,27.2,0000.0,0007.92,0003.24,0002.71
2023-06-08 17:31:00,SystemResetWarning,0830.7,5.00,000.00,029.5,028.0,000.0,038.0,031.0,26.9,0000.0,0007.41,0003.23,0002.71
2023-06-08 17:32:00,SystemResetWarning,0830.7,5.00,000.00,029.5,028.0,000.0,038.0,031.1,26.7,0000.0,0008.04,0003.23,0002.71
2023-06-08 17:33:00,SystemResetWarning,0830.7,4.98,000.00,029.5,026.5,000.0,037.9,031.2,26.4,0000.0,0008.14,0003.21,0002.71
2023-06-08 17:34:00,SystemResetWarning,0830.7,5.01,000.00,029.5,024.7,000.0,037.9,031.0,26.6,0000.0,0007.69,0003.20,0002.71
2023-06-08 17:35:00,SystemResetWarning,0830.7,5.01,000.00,029.5,024.5,000.0,037.8,030.9,27.1,0000.0,0007.59,0003.20,0002.71
2023-06-08 17:37:00,SystemResetWarning,0830.7,4.99,000.00,029.2,025.3,000.0,037.8,030.5,27.4,0000.0,0007.48,0003.22,0002.71
2023-06-08 17:38:00,SystemResetWarning,0830.7,4.99,000.00,029.2,025.7,000.0,037.8,030.5,27.2,0000.0,0006.70,0003.20,0002.71
2023-06-08 17:39:00,SystemResetWarning,0830.7,5.00,000.00,029.2,026.1,000.0,037.8,030.5,27.0,0000.0,0006.29,0003.21,0002.72
2023-06-08 17:40:00,SystemResetWarning,0830.7,5.00,000.00,029.2,026.5,000.0,037.8,030.6,27.4,0000.0,0006.67,0003.23,0002.72
2023-06-08 17:41:00,SystemResetWarning,0830.7,5.00,000.00,029.2,026.8,000.0,037.8,030.6,26.6,0000.0,0007.63,0003.27,0002.72
2023-06-08 17:42:00,SystemResetWarning,0830.7,5.00,000.00,029.2,027.1,000.0,037.8,030.7,27.5,0000.0,0007.52,0003.24,0002.70
2023-06-08 17:43:00,SystemResetWarning,0830.7,5.00,000.00,029.2,027.3,000.0,037.8,030.8,26.8,0000.0,0007.88,0003.21,0002.68
2023-06-08 17:44:00,SystemResetWarning,0830.7,5.01,000.00,029.2,027.5,000.0,037.8,030.8,26.4,0000.0,0007.59,0003.22,0002.69
2023-06-08 17:45:00,SystemResetWarning,0830.7,5.01,000.00,029.3,027.6,000.0,037.8,030.8,26.7,0000.0,0007.54,0003.20,0002.67
2023-06-08 17:46:00,SystemResetWarning,0830.7,5.00,000.00,029.3,027.8,000.0,037.8,030.9,27.0,0000.0,0007.72,0003.19,0002.67
2023-06-08 17:47:00,SystemResetWarning,0830.6,5.01,000.00,029.3,027.9,000.0,037.8,031.0,27.2,0000.0,0007.86,0003.15,0002.66
2023-06-08 17:48:00,SystemResetWarning,0830.7,4.99,000.00,029.4,028.0,000.0,037.8,031.0,27.6,0000.0,0007.85,0003.14,0002.65
2023-06-08 17:49:00,SystemResetWarning,0830.7,5.00,000.00,029.4,028.1,000.0,037.9,031.0,26.7,0000.0,0007.85,0003.14,0002.65
2023-06-08 17:50:00,SystemResetWarning,0830.7,4.99,000.00,029.4,027.6,000.0,037.9,031.1,27.3,0000.0,0007.85,0003.14,0002.63
2023-06-08 17:51:00,SystemResetWarning,0830.7,5.00,000.00,029.4,025.5,000.0,037.8,030.9,26.7,0000.0,0007.68,0003.12,0002.61
2023-06-08 17:52:00,SystemResetWarning,0830.6,5.00,000.00,029.4,024.3,000.0,037.8,030.8,27.1,0000.0,0006.76,0003.09,0002.61
2023-06-08 17:53:00,SystemResetWarning,0830.6,5.02,000.00,029.3,024.4,000.0,037.7,030.7,27.0,0000.0,0006.83,0003.11,0002.63
2023-06-08 17:54:00,SystemResetWarning,0830.6,4.98,000.00,029.2,024.8,000.0,037.7,030.5,27.5,0000.0,0005.12,0003.13,0002.65
2023-06-08 17:55:00,SystemResetWarning,0830.6,4.99,000.00,029.1,025.3,000.0,037.7,030.4,27.9,0000.0,0005.07,0003.12,0002.65
2023-06-08 17:56:00,SystemResetWarning,0830.6,5.01,000.00,029.1,025.8,000.0,037.7,030.5,27.2,0000.0,0005.21,0003.15,0002.66
2023-06-08 17:57:00,SystemResetWarning,0830.7,5.02,000.00,029.1,026.2,000.0,037.7,030.5,27.6,0000.0,0004.82,0003.14,0002.67
2023-06-08 17:58:00,SystemResetWarning,0830.6,5.00,000.00,029.1,026.5,000.0,037.7,030.5,27.6,0000.0,0004.49,0003.15,0002.66
2023-06-08 17:59:00,SystemResetWarning,0830.7,4.99,000.00,029.1,026.8,000.0,037.7,030.6,27.9,0000.0,0004.43,0003.14,0002.66
